Tracking 35237 objects as of 5-Sep-2026
HD Live streaming from Space Station
objects crossing your sky now

STARLINK-33924

Track STARLINK-33924 now!
10-day predictions
STARLINK-33924 is classified as:


NORAD ID: 64149
Int'l Code: 2025-112D
Launch date: May 27, 2025
Source: United States (US)
Launch site: AIR FORCE WESTERN TEST RANGE (AFWTR)
Your satellite tracking list
Your tracking list is empty




NASA's NSSDC Master Catalog

Two Line Element Set (TLE):
1 64149U 25112D   26248.08076171  .00020919  00000-0  64799-3 0  9996
2 64149  97.2840 295.3437 0001805 106.2443 253.8998 15.33469592 70382
Source of the keplerian elements: AFSPC